Stations météo

Publicité
Dieppe, France (7040): Température de l'air & dewpoint: 14.09.2018 06:00:00 - 20.09.2018 06:00:00 (CEST)Dieppe, France (7040): Température de l'air 5cm: 14.09.2018 06:00:00 - 20.09.2018 06:00:00 (CEST)Dieppe, France (7040): Vitesse du vent & gusts: 14.09.2018 06:00:00 - 20.09.2018 06:00:00 (CEST)Dieppe, France (7040): Direction du vent: 14.09.2018 06:00:00 - 20.09.2018 06:00:00 (CEST)Dieppe, France (7040): reduced air pressure: 14.09.2018 06:00:00 - 20.09.2018 06:00:00 (CEST)Dieppe, France (7040): visibility: 14.09.2018 06:00:00 - 20.09.2018 06:00:00 (CEST)Dieppe, France (7040): Quantités de précipitations: 14.09.2018 06:00:00 - 20.09.2018 06:00:00 (CEST)
Date & Time tt [°C] td [°C] tt 5cm [°C] ff [km/h] ff [knt] fx [km/h] fx [knt] dd ppp [hPa] vv [km] rr [mm]
20.09.2018 06:00:00 16,3 14,0 15,7 17 9 31 17 S 1016,9 - 0,0
20.09.2018 05:00:00 16,6 14,1 16,0 18 10 29 16 S 1017,3 - 0,0
20.09.2018 04:00:00 16,9 14,0 16,2 17 9 28 15 S 1017,1 - 0,0
20.09.2018 03:00:00 17,2 13,5 16,6 15 8 26 14 S 1017,3 - 0,0
20.09.2018 02:00:00 17,5 13,2 16,8 16 8 26 14 S 1017,5 - 0,0
20.09.2018 01:00:00 18,2 13,3 17,4 15 8 25 13 S 1017,7 - 0,0
20.09.2018 00:00:00 19,1 13,3 18,4 15 8 24 13 S 1017,7 - 0,0
19.09.2018 23:00:00 20,0 13,5 18,9 11 6 20 11 SSW 1018,2 - 0,0
19.09.2018 22:00:00 19,9 13,6 19,3 12 6 19 11 S 1017,9 - 0,0
19.09.2018 21:00:00 20,8 13,5 20,0 10 6 18 10 S 1017,6 - 0,0
19.09.2018 20:00:00 22,2 13,5 21,3 10 5 23 12 SSW 1017,4 - 0,0
19.09.2018 19:00:00 23,0 13,7 22,7 16 9 36 20 SW 1017,2 - 0,0
19.09.2018 18:00:00 23,4 13,8 23,2 20 11 44 24 SW 1017,1 - 0,0
19.09.2018 17:00:00 23,2 13,7 23,6 22 12 42 23 SW 1017,2 - 0,0
19.09.2018 16:00:00 22,7 13,7 22,9 23 12 39 21 SW 1017,5 - 0,0
19.09.2018 15:00:00 22,6 14,2 22,9 20 11 41 22 SSW 1017,4 - 0,0
19.09.2018 14:00:00 22,1 14,0 21,8 18 10 36 19 SSW 1017,3 12 0,0
19.09.2018 13:00:00 21,2 14,4 21,3 18 10 37 20 SW 1017,5 - 0,0
19.09.2018 12:00:00 20,4 14,3 22,4 19 11 41 22 SSW 1017,5 - 0,0
19.09.2018 11:00:00 19,0 14,3 19,7 19 11 36 20 SSW 1017,5 15 0,0
19.09.2018 10:00:00 17,8 14,3 18,0 19 10 34 19 S 1017,0 - 0,0
19.09.2018 09:00:00 16,1 13,4 15,0 18 10 30 16 S 1016,6 - 0,0
19.09.2018 08:00:00 15,4 13,1 14,8 19 10 29 16 S 1016,2 12 0,0
19.09.2018 07:00:00 15,9 13,2 15,3 17 9 29 16 S 1016,1 - 0,0
19.09.2018 06:00:00 16,1 13,0 15,6 17 9 31 17 S 1015,9 - 0,0
19.09.2018 05:00:00 16,3 13,2 15,8 16 9 26 14 S 1016,0 - 0,0
19.09.2018 04:00:00 16,9 13,2 16,2 14 8 29 16 S 1016,0 - 0,0
19.09.2018 03:00:00 17,1 13,4 15,6 16 8 25 14 S 1015,8 - 0,0
19.09.2018 02:00:00 16,2 13,7 14,9 17 9 24 13 S 1015,4 - 0,0
19.09.2018 01:00:00 15,3 13,8 14,4 15 8 24 13 S 1015,3 - 0,0
19.09.2018 00:00:00 15,5 13,9 14,9 10 6 16 9 S 1015,3 - 0,0
18.09.2018 23:00:00 15,8 14,0 15,0 9 5 12 7 S 1015,5 - 0,0
18.09.2018 22:00:00 16,9 14,5 13,9 8 4 9 5 SSE 1015,7 - 0,0
18.09.2018 21:00:00 17,7 15,1 13,6 0 0 6 3 N 1015,5 - 0,0
18.09.2018 20:00:00 18,8 15,1 17,0 2 1 10 5 WNW 1015,3 12 0,0
18.09.2018 19:00:00 20,2 15,6 21,4 8 4 17 9 W 1015,1 - 0,0
18.09.2018 18:00:00 20,2 15,8 20,0 13 7 31 17 W 1015,1 - 0,0
18.09.2018 17:00:00 20,3 15,3 20,8 20 11 41 22 W 1014,9 - 0,0
18.09.2018 16:00:00 20,0 15,0 20,7 27 14 48 26 W 1014,8 - 0,0
18.09.2018 15:00:00 20,1 15,9 21,3 22 12 39 21 WSW 1014,8 - 0,0
18.09.2018 14:00:00 21,7 14,6 21,2 19 11 37 20 WSW 1014,6 14 0,0
18.09.2018 13:00:00 20,1 15,1 20,6 21 11 45 25 WSW 1014,1 - 0,0
18.09.2018 12:00:00 20,5 13,7 20,4 26 14 44 24 SW 1013,6 - 0,0
18.09.2018 11:00:00 19,9 14,5 19,9 24 13 45 24 SW 1012,8 14 0,0
18.09.2018 10:00:00 19,0 15,3 18,7 16 9 32 17 SSW 1012,3 - 0,0
18.09.2018 09:00:00 17,6 14,9 16,6 15 8 26 14 S 1011,4 - 0,0
18.09.2018 08:00:00 17,1 14,4 16,4 9 5 25 13 S 1011,1 - 0,0
18.09.2018 07:00:00 17,8 14,5 17,0 17 9 30 16 S 1010,7 - 0,0
18.09.2018 06:00:00 18,2 13,1 16,9 12 7 29 16 SSW 1010,8 - 0,0
18.09.2018 05:00:00 18,2 12,0 17,3 16 9 29 16 S 1009,9 - 0,0
18.09.2018 04:00:00 19,1 10,9 18,2 16 9 28 15 S 1009,4 - 0,0
18.09.2018 03:00:00 19,9 10,3 18,7 13 7 27 14 S 1009,5 - 0,0
18.09.2018 02:00:00 20,1 9,6 18,0 15 8 28 15 S 1009,8 - 0,0
18.09.2018 01:00:00 18,7 9,5 17,2 14 8 26 14 SSE 1009,8 - 0,0
18.09.2018 00:00:00 18,3 9,6 17,2 15 8 26 14 S 1010,1 - 0,0
17.09.2018 23:00:00 19,0 9,7 18,1 11 6 19 10 SSE 1010,6 - 0,0
17.09.2018 22:00:00 19,3 10,0 17,7 10 5 18 10 SSE 1011,1 - 0,0
17.09.2018 21:00:00 20,7 10,8 19,5 6 3 16 9 S 1011,5 - 0,0
17.09.2018 20:00:00 23,1 9,1 21,6 8 4 17 9 SE 1011,6 18 0,0
17.09.2018 19:00:00 24,9 9,6 24,6 7 4 15 8 SE 1012,4 - 0,0
17.09.2018 18:00:00 26,0 9,8 26,2 8 5 26 14 SE 1012,9 - 0,0
17.09.2018 17:00:00 27,1 7,5 27,6 13 7 25 13 S 1013,7 24 0,0
17.09.2018 16:00:00 26,8 9,6 28,7 12 7 27 15 S 1014,7 - 0,0
17.09.2018 15:00:00 25,9 8,4 27,6 16 9 33 18 S 1015,7 - 0,0
17.09.2018 14:00:00 24,7 8,6 27,0 18 10 33 18 S 1016,3 18 0,0
17.09.2018 13:00:00 23,5 9,5 23,4 16 9 30 16 S 1016,9 - 0,0
17.09.2018 12:00:00 21,4 11,4 22,7 13 7 25 14 SSE 1017,6 - 0,0
17.09.2018 11:00:00 18,3 10,6 16,7 13 7 27 14 SSE 1018,2 18 0,0
17.09.2018 10:00:00 13,9 9,9 11,8 13 7 22 12 SSE 1018,8 - 0,0
17.09.2018 09:00:00 10,2 8,5 9,5 12 7 23 12 S 1018,9 - 0,0
17.09.2018 08:00:00 9,7 8,3 9,1 17 9 23 13 S 1018,8 - 0,0
17.09.2018 07:00:00 9,9 8,5 9,2 16 9 24 13 S 1018,7 - 0,0
17.09.2018 06:00:00 10,1 8,9 9,5 16 9 21 12 S 1018,5 - 0,0
17.09.2018 05:00:00 10,1 8,9 9,7 16 9 21 12 S 1019,0 - 0,0
17.09.2018 04:00:00 10,7 9,3 10,2 16 9 21 11 S 1019,7 - 0,0
17.09.2018 03:00:00 11,4 9,8 10,9 15 8 21 11 S 1019,9 - 0,0
17.09.2018 02:00:00 11,6 10,0 11,1 15 8 19 11 S 1020,1 - 0,0
17.09.2018 01:00:00 12,0 10,2 11,4 12 7 19 10 S 1020,1 - 0,0
17.09.2018 00:00:00 12,7 10,4 12,2 12 7 15 8 SSE 1019,9 - 0,0
16.09.2018 23:00:00 13,7 10,7 12,9 11 6 16 9 S 1020,2 - 0,0
16.09.2018 22:00:00 15,3 10,7 14,5 9 5 12 6 S 1020,6 - 0,0
16.09.2018 21:00:00 17,4 10,3 15,7 5 3 7 4 SSE 1020,4 - 0,0
16.09.2018 20:00:00 18,7 12,0 17,4 3 2 7 4 SSE 1019,7 - 0,0
16.09.2018 19:00:00 21,1 13,0 22,6 0 0 8 4 N 1019,5 - 0,0
16.09.2018 18:00:00 21,1 13,0 21,4 6 4 17 9 W 1019,5 - 0,0
16.09.2018 17:00:00 21,0 13,4 22,1 14 7 19 10 WNW 1019,8 24 0,0
16.09.2018 16:00:00 21,2 11,8 22,5 8 4 18 10 WNW 1019,7 - 0,0
16.09.2018 15:00:00 21,8 9,3 22,8 9 5 21 11 SW 1019,9 - 0,0
16.09.2018 14:00:00 21,6 9,5 22,0 11 6 23 13 S 1020,6 15 0,0
16.09.2018 13:00:00 21,4 11,1 21,2 13 7 26 14 S 1021,2 - 0,0
16.09.2018 12:00:00 19,7 10,7 20,7 16 9 31 17 S 1021,4 - 0,0
16.09.2018 11:00:00 17,8 11,1 17,8 12 7 29 16 SSE 1021,3 15 0,0
16.09.2018 10:00:00 15,6 10,4 14,0 14 8 26 14 SSE 1021,4 - 0,0
16.09.2018 09:00:00 13,0 9,6 11,0 14 8 24 13 SSE 1021,4 - 0,0
16.09.2018 08:00:00 11,3 9,4 10,3 15 8 24 13 S 1021,4 - 0,0
16.09.2018 07:00:00 10,8 9,6 9,9 13 7 22 12 SSE 1021,6 - 0,2
16.09.2018 06:00:00 10,5 9,6 9,7 13 7 20 11 S 1021,7 - 0,0
16.09.2018 05:00:00 10,5 9,7 9,6 12 7 19 11 S 1022,0 - 0,0
16.09.2018 04:00:00 10,5 9,7 9,9 13 7 19 11 S 1022,2 - 0,0
16.09.2018 03:00:00 10,6 9,8 10,0 11 6 16 9 S 1022,7 - 0,0
16.09.2018 02:00:00 11,1 10,2 10,5 11 6 15 8 S 1023,5 - 0,0
16.09.2018 01:00:00 11,6 10,5 11,1 12 6 16 9 S 1024,3 - 0,0
16.09.2018 00:00:00 12,1 10,8 11,7 12 7 16 8 S 1024,7 - 0,0
15.09.2018 23:00:00 13,0 11,4 12,4 10 6 13 7 SSE 1024,8 - 0,0
15.09.2018 22:00:00 14,2 11,7 11,9 7 4 9 5 SSE 1025,0 - 0,0
15.09.2018 21:00:00 15,5 12,1 10,5 3 2 4 2 ESE 1024,9 - 0,0
15.09.2018 20:00:00 16,6 11,7 15,4 2 1 10 6 NW 1024,9 - 0,0
15.09.2018 19:00:00 18,3 12,1 18,9 7 4 16 8 WNW 1024,8 - 0,0
15.09.2018 18:00:00 18,7 12,2 19,8 8 4 17 9 NW 1025,1 - 0,0
15.09.2018 17:00:00 19,1 12,1 20,2 11 6 20 11 NW 1025,2 - 0,0
15.09.2018 16:00:00 18,6 12,1 21,3 11 6 21 11 WNW 1025,6 - 0,0
15.09.2018 15:00:00 18,3 11,8 17,9 12 6 24 13 WNW 1025,8 - 0,0
15.09.2018 14:00:00 17,9 12,1 18,1 17 9 24 13 W 1025,9 12 0,0
15.09.2018 13:00:00 17,2 12,5 17,2 13 7 22 12 W 1026,1 - 0,0
15.09.2018 12:00:00 17,4 12,7 17,7 12 6 18 10 W 1026,2 - 0,0
15.09.2018 11:00:00 17,2 12,7 17,6 7 4 18 10 S 1025,8 12 0,0
15.09.2018 10:00:00 14,4 11,4 13,7 12 6 19 10 S 1025,5 - 0,0
15.09.2018 09:00:00 12,5 10,9 11,3 11 6 19 10 SSE 1025,3 - 0,0
15.09.2018 08:00:00 11,6 10,3 11,1 14 7 21 11 S 1024,8 16 0,0
15.09.2018 07:00:00 11,8 10,4 11,2 14 7 22 12 SSE 1024,2 - 0,0
15.09.2018 06:00:00 12,1 10,7 11,3 14 8 21 12 S 1024,0 - 0,0
15.09.2018 05:00:00 12,2 10,4 11,5 13 7 19 11 S 1023,8 - 0,0
15.09.2018 04:00:00 12,3 10,4 11,7 13 7 21 11 S 1024,0 - 0,0
15.09.2018 03:00:00 12,8 10,5 12,3 11 6 23 12 S 1024,1 - 0,0
15.09.2018 02:00:00 14,0 10,8 13,1 13 7 36 19 S 1023,8 - 0,0
15.09.2018 01:00:00 16,5 12,5 13,4 22 12 38 21 W 1023,8 - 0,0
15.09.2018 00:00:00 13,9 10,3 13,1 11 6 19 10 S 1023,7 - 0,0
14.09.2018 23:00:00 14,0 10,4 13,5 11 6 17 9 S 1023,5 - 0,0
14.09.2018 22:00:00 14,5 10,3 13,9 12 6 44 24 SSW 1023,2 - 0,0
14.09.2018 21:00:00 15,8 10,5 15,0 17 9 40 22 WSW 1023,0 - 0,0
14.09.2018 20:00:00 16,1 10,8 15,6 22 12 37 20 W 1022,6 12 0,0
14.09.2018 19:00:00 16,6 10,9 16,3 23 12 39 21 W 1022,3 - 0,0
14.09.2018 18:00:00 16,8 9,7 16,8 23 13 36 19 W 1022,5 - 0,0
14.09.2018 17:00:00 17,5 9,6 17,7 23 12 39 21 W 1022,6 14 0,0
14.09.2018 16:00:00 17,3 10,2 17,0 28 15 39 21 W 1022,6 - 0,0
14.09.2018 15:00:00 16,9 10,7 15,2 11 6 27 15 WSW 1022,5 - 0,0
14.09.2018 14:00:00 15,2 10,6 14,5 20 11 40 22 WSW 1022,8 14 0,0
14.09.2018 13:00:00 16,6 10,0 16,9 13 7 20 11 W 1022,5 - 0,0
14.09.2018 12:00:00 17,1 10,7 17,0 11 6 21 11 W 1022,8 - 0,0
14.09.2018 11:00:00 15,9 11,5 15,6 10 5 23 12 SW 1022,6 - 0,0
14.09.2018 10:00:00 12,4 10,5 11,2 13 7 23 12 S 1022,5 - 0,0
14.09.2018 09:00:00 10,6 9,0 9,7 16 9 23 12 S 1022,1 - 0,0
14.09.2018 08:00:00 9,9 8,5 8,7 18 10 24 13 SSE 1021,8 - 0,0
14.09.2018 07:00:00 9,2 8,1 8,3 17 9 22 12 S 1021,7 - 0,0
14.09.2018 06:00:00 8,7 7,9 8,1 15 8 21 11 S 1022,0 - 0,0

tt = Température de l'air
td = dewpoint
tt 5cm = Température de l'air 5cm
ff = Vitesse du vent
fx = gusts
dd = Direction du vent
ppp = reduced air pressure
vv = visibility
rr = Quantités de précipitations

stations d'obs. à proximité